Year,Month,Day,Hour,Minute,Value (Times are PST for temperature in C)
2018,04,10,00,00,10.50
2018,04,10,00,01,10.50
2018,04,10,00,02,10.40
2018,04,10,00,03,10.40
2018,04,10,00,04,10.40
2018,04,10,00,05,10.40
2018,04,10,00,06,10.40
2018,04,10,00,07,10.40
2018,04,10,00,08,10.40
2018,04,10,00,09,10.40
2018,04,10,00,10,10.40
2018,04,10,00,11,10.40
2018,04,10,00,12,10.40
2018,04,10,00,13,10.40
2018,04,10,00,14,10.40
2018,04,10,00,15,10.50
2018,04,10,00,16,10.50
2018,04,10,00,17,10.50
2018,04,10,00,18,10.50
2018,04,10,00,19,10.50
2018,04,10,00,20,10.50
2018,04,10,00,21,10.50
2018,04,10,00,22,10.50
2018,04,10,00,23,10.50
2018,04,10,00,24,10.50
2018,04,10,00,25,10.50
2018,04,10,00,26,10.50
2018,04,10,00,27,10.50
2018,04,10,00,28,10.50
2018,04,10,00,29,10.40
2018,04,10,00,30,10.40
2018,04,10,00,31,10.40
2018,04,10,00,32,10.40
2018,04,10,00,33,10.40
2018,04,10,00,34,10.40
2018,04,10,00,35,10.40
2018,04,10,00,36,10.40
2018,04,10,00,37,10.40
2018,04,10,00,38,10.40
2018,04,10,00,39,10.40
2018,04,10,00,40,10.40
2018,04,10,00,41,10.40
2018,04,10,00,42,10.40
2018,04,10,00,43,10.40
2018,04,10,00,44,10.50
2018,04,10,00,45,10.50
2018,04,10,00,46,10.50
2018,04,10,00,47,10.50
2018,04,10,00,48,10.50
2018,04,10,00,49,10.60
2018,04,10,00,50,10.60
2018,04,10,00,51,10.60
2018,04,10,00,52,10.60
2018,04,10,00,53,10.60
2018,04,10,00,54,10.60
2018,04,10,00,55,10.60
2018,04,10,00,56,10.60
2018,04,10,00,57,10.60
2018,04,10,00,58,10.60
2018,04,10,00,59,10.60
2018,04,10,01,00,10.60
2018,04,10,01,01,10.60
2018,04,10,01,02,10.60
2018,04,10,01,03,10.60
2018,04,10,01,04,10.60
2018,04,10,01,05,10.60
2018,04,10,01,06,10.60
2018,04,10,01,07,10.60
2018,04,10,01,08,10.60
2018,04,10,01,09,10.60
2018,04,10,01,10,10.50
2018,04,10,01,11,10.50
2018,04,10,01,12,10.50
2018,04,10,01,13,10.50
2018,04,10,01,14,10.50
2018,04,10,01,15,10.50
2018,04,10,01,16,10.50
2018,04,10,01,17,10.50
2018,04,10,01,18,10.50
2018,04,10,01,19,10.50
2018,04,10,01,20,10.50
2018,04,10,01,21,10.50
2018,04,10,01,22,10.50
2018,04,10,01,23,10.50
2018,04,10,01,24,10.40
2018,04,10,01,25,10.40
2018,04,10,01,26,10.40
2018,04,10,01,27,10.40
2018,04,10,01,28,10.40
2018,04,10,01,29,10.40
2018,04,10,01,30,10.40
2018,04,10,01,31,10.40
2018,04,10,01,32,10.40
2018,04,10,01,33,10.40
2018,04,10,01,34,10.40
2018,04,10,01,35,10.40
2018,04,10,01,36,10.40
2018,04,10,01,37,10.40
2018,04,10,01,38,10.40
2018,04,10,01,39,10.40
2018,04,10,01,40,10.40
2018,04,10,01,41,10.40
2018,04,10,01,42,10.40
2018,04,10,01,43,10.40
2018,04,10,01,44,10.40
2018,04,10,01,45,10.40
2018,04,10,01,46,10.40
2018,04,10,01,47,10.40
2018,04,10,01,48,10.40
2018,04,10,01,49,10.40
2018,04,10,01,50,10.40
2018,04,10,01,51,10.40
2018,04,10,01,52,10.40
2018,04,10,01,53,10.40
2018,04,10,01,54,10.40
2018,04,10,01,55,10.40
2018,04,10,01,56,10.40
2018,04,10,01,57,10.40
2018,04,10,01,58,10.40
2018,04,10,01,59,10.40
2018,04,10,02,00,10.40
2018,04,10,02,01,10.40
2018,04,10,02,02,10.40
2018,04,10,02,03,10.40
2018,04,10,02,04,10.40
2018,04,10,02,05,10.40
2018,04,10,02,06,10.40
2018,04,10,02,07,10.40
2018,04,10,02,08,10.40
2018,04,10,02,09,10.40
2018,04,10,02,10,10.40
2018,04,10,02,11,10.40
2018,04,10,02,12,10.40
2018,04,10,02,13,10.40
2018,04,10,02,14,10.40
2018,04,10,02,15,10.40
2018,04,10,02,16,10.40
2018,04,10,02,17,10.40
2018,04,10,02,18,10.40
2018,04,10,02,19,10.40
2018,04,10,02,20,10.40
2018,04,10,02,21,10.40
2018,04,10,02,22,10.40
2018,04,10,02,23,10.40
2018,04,10,02,24,10.40
2018,04,10,02,25,10.40
2018,04,10,02,26,10.40
2018,04,10,02,27,10.40
2018,04,10,02,28,10.40
2018,04,10,02,29,10.40
2018,04,10,02,30,10.40
2018,04,10,02,31,10.40
2018,04,10,02,32,10.50
2018,04,10,02,33,10.50
2018,04,10,02,34,10.50
2018,04,10,02,35,10.50
2018,04,10,02,36,10.50
2018,04,10,02,37,10.50
2018,04,10,02,38,10.50
2018,04,10,02,39,10.40
2018,04,10,02,40,10.40
2018,04,10,02,41,10.40
2018,04,10,02,42,10.40
2018,04,10,02,43,10.40
2018,04,10,02,44,10.40
2018,04,10,02,45,10.40
2018,04,10,02,46,10.40
2018,04,10,02,47,10.40
2018,04,10,02,48,10.40
2018,04,10,02,49,10.40
2018,04,10,02,50,10.50
2018,04,10,02,51,10.50
2018,04,10,02,52,10.50
2018,04,10,02,53,10.50
2018,04,10,02,54,10.50
2018,04,10,02,55,10.50
2018,04,10,02,56,10.60
2018,04,10,02,57,10.60
2018,04,10,02,58,10.60
2018,04,10,02,59,10.60
2018,04,10,03,00,10.60
2018,04,10,03,01,10.60
2018,04,10,03,02,10.60
2018,04,10,03,03,10.60
2018,04,10,03,04,10.50
2018,04,10,03,05,10.50
2018,04,10,03,06,10.50
2018,04,10,03,07,10.50
2018,04,10,03,08,10.40
2018,04,10,03,09,10.40
2018,04,10,03,10,10.40
2018,04,10,03,11,10.40
2018,04,10,03,12,10.40
2018,04,10,03,13,10.40
2018,04,10,03,14,10.50
2018,04,10,03,15,10.50
2018,04,10,03,16,10.40
2018,04,10,03,17,10.40
2018,04,10,03,18,10.40
2018,04,10,03,19,10.40
2018,04,10,03,20,10.40
2018,04,10,03,21,10.40
2018,04,10,03,22,10.40
2018,04,10,03,23,10.40
2018,04,10,03,24,10.40
2018,04,10,03,25,10.40
2018,04,10,03,26,10.40
2018,04,10,03,27,10.40
2018,04,10,03,28,10.40
2018,04,10,03,29,10.40
2018,04,10,03,30,10.40
2018,04,10,03,31,10.40
2018,04,10,03,32,10.50
2018,04,10,03,33,10.50
2018,04,10,03,34,10.50
2018,04,10,03,35,10.50
2018,04,10,03,36,10.50
2018,04,10,03,37,10.50
2018,04,10,03,38,10.60
2018,04,10,03,39,10.60
2018,04,10,03,40,10.60
2018,04,10,03,41,10.60
2018,04,10,03,42,10.60
2018,04,10,03,43,10.60
2018,04,10,03,44,10.60
2018,04,10,03,45,10.60
2018,04,10,03,46,10.60
2018,04,10,03,47,10.60
2018,04,10,03,48,10.60
2018,04,10,03,49,10.60
2018,04,10,03,50,10.60
2018,04,10,03,51,10.60
2018,04,10,03,52,10.60
2018,04,10,03,53,10.60
2018,04,10,03,54,10.60
2018,04,10,03,55,10.60
2018,04,10,03,56,10.60
2018,04,10,03,57,10.60
2018,04,10,03,58,10.50
2018,04,10,03,59,10.50
2018,04,10,04,00,10.50
2018,04,10,04,01,10.50
2018,04,10,04,02,10.50
2018,04,10,04,03,10.50
2018,04,10,05,04,10.60
2018,04,10,05,05,10.60
2018,04,10,05,06,10.60
2018,04,10,05,07,10.60
2018,04,10,05,08,10.60
2018,04,10,05,09,10.60
2018,04,10,05,10,10.60
2018,04,10,05,11,10.60
2018,04,10,05,12,10.50
2018,04,10,05,13,10.50
2018,04,10,05,14,10.50
2018,04,10,05,15,10.50
2018,04,10,05,16,10.50
2018,04,10,05,17,10.50
2018,04,10,05,18,10.50
2018,04,10,05,19,10.50
2018,04,10,05,20,10.50
2018,04,10,05,21,10.50
2018,04,10,05,22,10.50
2018,04,10,05,23,10.50
2018,04,10,05,24,10.60
2018,04,10,05,25,10.60
2018,04,10,05,26,10.70
2018,04,10,05,27,10.80
2018,04,10,05,28,10.80
2018,04,10,05,29,10.80
2018,04,10,05,30,10.80
2018,04,10,05,31,10.90
2018,04,10,05,32,10.90
2018,04,10,05,33,10.90
2018,04,10,05,34,10.90
2018,04,10,05,35,10.90
2018,04,10,05,36,10.90
2018,04,10,05,37,10.90
2018,04,10,05,38,10.80
2018,04,10,05,39,10.80
2018,04,10,05,40,10.80
2018,04,10,05,41,10.80
2018,04,10,05,42,10.80
2018,04,10,05,43,10.80
2018,04,10,05,44,10.70
2018,04,10,05,45,10.70
2018,04,10,05,46,10.70
2018,04,10,05,47,10.70
2018,04,10,05,48,10.60
2018,04,10,05,49,10.60
2018,04,10,05,50,10.60
2018,04,10,05,51,10.60
2018,04,10,05,52,10.50
2018,04,10,05,53,10.50
2018,04,10,05,54,10.50
2018,04,10,05,55,10.50
2018,04,10,05,56,10.50
2018,04,10,05,57,10.50
2018,04,10,05,58,10.50
2018,04,10,05,59,10.50
2018,04,10,06,00,10.50
2018,04,10,06,01,10.50
2018,04,10,06,02,10.50
2018,04,10,06,03,10.50
2018,04,10,06,04,10.60
2018,04,10,06,05,10.50
2018,04,10,06,06,10.50
2018,04,10,06,07,10.50
2018,04,10,06,08,10.50
2018,04,10,06,09,10.40
2018,04,10,06,10,10.40
2018,04,10,06,11,10.40
2018,04,10,06,12,10.40
2018,04,10,06,13,10.40
2018,04,10,06,14,10.40
2018,04,10,06,15,10.40
2018,04,10,06,16,10.40
2018,04,10,06,17,10.40
2018,04,10,06,18,10.40
2018,04,10,06,19,10.40
2018,04,10,06,20,10.40
2018,04,10,06,21,10.40
2018,04,10,06,22,10.40
2018,04,10,06,23,10.40
2018,04,10,06,24,10.40
2018,04,10,06,25,10.40
2018,04,10,06,26,10.40
2018,04,10,06,27,10.40
2018,04,10,06,28,10.40
2018,04,10,06,29,10.40
2018,04,10,06,30,10.40
2018,04,10,06,31,10.40
2018,04,10,06,32,10.50
2018,04,10,06,33,10.50
2018,04,10,06,34,10.50
2018,04,10,06,35,10.60
2018,04,10,06,36,10.60
2018,04,10,06,37,10.60
2018,04,10,06,38,10.60
2018,04,10,06,39,10.70
2018,04,10,06,40,10.70
2018,04,10,06,41,10.70
2018,04,10,06,42,10.70
2018,04,10,06,43,10.70
2018,04,10,06,44,10.60
2018,04,10,06,45,10.60
2018,04,10,06,46,10.60
2018,04,10,06,47,10.60
2018,04,10,06,48,10.60
2018,04,10,06,49,10.60
2018,04,10,06,50,10.60
2018,04,10,06,51,10.60
2018,04,10,06,52,10.60
2018,04,10,06,53,10.60
2018,04,10,06,54,10.60
2018,04,10,06,55,10.60
2018,04,10,06,56,10.60
2018,04,10,06,57,10.60
2018,04,10,06,58,10.60
2018,04,10,06,59,10.60
2018,04,10,07,00,10.60
2018,04,10,07,01,10.60
2018,04,10,07,02,10.60
2018,04,10,07,03,10.60
2018,04,10,07,04,10.50
2018,04,10,07,05,10.50
2018,04,10,07,06,10.50
2018,04,10,07,07,10.50
2018,04,10,07,08,10.50
2018,04,10,07,09,10.50
2018,04,10,07,10,10.50
2018,04,10,07,11,10.50
2018,04,10,07,12,10.50
2018,04,10,07,13,10.50
2018,04,10,07,14,10.60
2018,04,10,07,15,10.60
2018,04,10,07,16,10.60
2018,04,10,07,17,10.60
2018,04,10,07,18,10.60
2018,04,10,07,19,10.60
2018,04,10,07,20,10.60
2018,04,10,07,21,10.60
2018,04,10,07,22,10.60
2018,04,10,07,23,10.60
2018,04,10,07,24,10.60
2018,04,10,07,25,10.60
2018,04,10,07,26,10.60
2018,04,10,07,27,10.60
2018,04,10,07,28,10.60
2018,04,10,07,29,10.60
2018,04,10,07,30,10.70
2018,04,10,07,31,10.70
2018,04,10,07,32,10.70
2018,04,10,07,33,10.70
2018,04,10,07,34,10.70
2018,04,10,07,35,10.70
2018,04,10,07,36,10.70
2018,04,10,07,37,10.70
2018,04,10,07,38,10.80
2018,04,10,07,39,10.80
2018,04,10,07,40,10.80
2018,04,10,07,41,10.80
2018,04,10,07,42,10.80
2018,04,10,07,43,10.80
2018,04,10,07,44,10.70
2018,04,10,07,45,10.70
2018,04,10,07,46,10.70
2018,04,10,07,47,10.70
2018,04,10,07,48,10.70
2018,04,10,07,49,10.70
2018,04,10,07,50,10.70
2018,04,10,07,51,10.70
2018,04,10,07,52,10.70
2018,04,10,07,53,10.70
2018,04,10,07,54,10.70
2018,04,10,07,55,10.60
2018,04,10,07,56,10.60
2018,04,10,07,57,10.60
2018,04,10,07,58,10.60
2018,04,10,07,59,10.60
2018,04,10,08,00,10.60
2018,04,10,08,01,10.60
2018,04,10,08,02,10.60
2018,04,10,08,03,10.60
2018,04,10,08,04,10.60
2018,04,10,08,05,10.60
2018,04,10,08,06,10.60
2018,04,10,08,07,10.60
2018,04,10,08,08,10.60
2018,04,10,08,09,10.60
2018,04,10,08,10,10.60
2018,04,10,08,11,10.60
2018,04,10,08,12,10.60
2018,04,10,08,13,10.60
2018,04,10,08,14,10.60
2018,04,10,08,15,10.60
2018,04,10,08,16,10.60
2018,04,10,08,17,10.70
2018,04,10,08,18,10.70
2018,04,10,08,19,10.70
2018,04,10,08,20,10.70
2018,04,10,08,21,10.70
2018,04,10,08,22,10.70
2018,04,10,08,23,10.70
2018,04,10,08,24,10.70
2018,04,10,08,25,10.70
2018,04,10,08,26,10.80
2018,04,10,08,27,10.80
2018,04,10,08,28,10.90
2018,04,10,08,29,11.00
2018,04,10,08,30,11.00
2018,04,10,08,31,11.10
2018,04,10,08,32,11.10
2018,04,10,08,33,11.20
2018,04,10,08,34,11.20
2018,04,10,08,35,11.30
2018,04,10,08,36,11.30
2018,04,10,08,37,11.40
2018,04,10,08,38,11.40
2018,04,10,08,39,11.40
2018,04,10,08,40,11.50
2018,04,10,08,41,11.50
2018,04,10,08,42,11.60
2018,04,10,08,43,11.60
2018,04,10,08,44,11.60
2018,04,10,08,45,11.60
2018,04,10,08,46,11.70
2018,04,10,08,47,11.70
2018,04,10,08,48,11.70
2018,04,10,08,49,11.80
2018,04,10,08,50,11.80
2018,04,10,08,51,11.80
2018,04,10,08,52,11.90
2018,04,10,08,53,11.90
2018,04,10,08,54,12.00
2018,04,10,08,55,12.00
2018,04,10,08,56,12.10
2018,04,10,08,57,12.10
2018,04,10,08,58,12.10
2018,04,10,08,59,12.20
2018,04,10,09,00,12.20
2018,04,10,09,01,12.20
2018,04,10,09,02,12.20
2018,04,10,09,03,12.30
2018,04,10,09,04,12.30
2018,04,10,09,05,12.30
2018,04,10,09,06,12.30
2018,04,10,09,07,12.40
2018,04,10,09,08,12.40
2018,04,10,09,09,12.40
2018,04,10,09,10,12.40
2018,04,10,09,11,12.40
2018,04,10,09,12,12.40
2018,04,10,09,13,12.40
2018,04,10,09,14,12.30
2018,04,10,09,15,12.30
2018,04,10,09,16,12.30
2018,04,10,09,17,12.30
2018,04,10,09,18,12.20
2018,04,10,09,19,12.20
2018,04,10,09,20,12.20
2018,04,10,09,21,12.20
2018,04,10,09,22,12.20
2018,04,10,09,23,12.20
2018,04,10,09,24,12.20
2018,04,10,09,25,12.20
2018,04,10,09,26,12.20
2018,04,10,09,27,12.20
2018,04,10,09,28,12.20
2018,04,10,09,29,12.20
2018,04,10,09,30,12.30
2018,04,10,09,31,12.30
2018,04,10,09,32,12.40
2018,04,10,09,33,12.40
2018,04,10,09,34,12.40
2018,04,10,09,35,12.40
2018,04,10,09,36,12.40
2018,04,10,09,37,12.50
2018,04,10,09,38,12.50
2018,04,10,09,39,12.50
2018,04,10,09,40,12.50
2018,04,10,09,41,12.50
2018,04,10,09,42,12.50
2018,04,10,09,43,12.50
2018,04,10,09,44,12.60
2018,04,10,09,45,12.60
2018,04,10,09,46,12.70
2018,04,10,09,47,12.70
2018,04,10,09,48,12.70
2018,04,10,09,49,12.70
2018,04,10,09,50,12.80
2018,04,10,09,51,12.80
2018,04,10,09,52,12.80
2018,04,10,09,53,12.90
2018,04,10,09,54,12.90
2018,04,10,09,55,12.90
2018,04,10,09,56,12.90
2018,04,10,09,57,12.80
2018,04,10,09,58,12.80
2018,04,10,09,59,12.90
2018,04,10,10,00,12.90
2018,04,10,10,01,12.90
2018,04,10,10,02,13.00
2018,04,10,10,03,13.00
2018,04,10,10,04,13.00
2018,04,10,10,05,12.90
2018,04,10,10,06,12.90
2018,04,10,10,07,12.90
2018,04,10,10,08,12.80
2018,04,10,10,09,12.80
2018,04,10,10,10,12.70
2018,04,10,10,11,12.60
2018,04,10,10,12,12.50
2018,04,10,10,13,12.40
2018,04,10,10,14,12.30
2018,04,10,10,15,12.20
2018,04,10,10,16,12.10
2018,04,10,10,17,11.90
2018,04,10,10,18,11.80
2018,04,10,10,19,11.60
2018,04,10,10,20,11.50
2018,04,10,10,21,11.40
2018,04,10,10,22,11.30
2018,04,10,10,23,11.20
2018,04,10,10,24,11.10
2018,04,10,10,25,11.00
2018,04,10,10,26,10.90
2018,04,10,10,27,10.80
2018,04,10,10,28,10.80
2018,04,10,10,29,10.70
2018,04,10,10,30,10.60
2018,04,10,10,31,10.60
2018,04,10,10,32,10.60
2018,04,10,10,33,10.50
2018,04,10,10,34,10.40
2018,04,10,10,35,10.40
2018,04,10,10,36,10.40
2018,04,10,10,37,10.30
2018,04,10,10,38,10.30
2018,04,10,10,39,10.30
2018,04,10,10,40,10.30
2018,04,10,10,41,10.30
2018,04,10,10,42,10.30
2018,04,10,10,43,10.30
2018,04,10,10,44,10.40
2018,04,10,10,45,10.40
2018,04,10,10,46,10.40
2018,04,10,10,47,10.40
2018,04,10,10,48,10.40
2018,04,10,10,49,10.50
2018,04,10,10,50,10.50
2018,04,10,10,51,10.50
2018,04,10,10,52,10.60
2018,04,10,10,53,10.60
2018,04,10,10,54,10.60
2018,04,10,10,55,10.70
2018,04,10,10,56,10.70
2018,04,10,10,57,10.70
2018,04,10,10,58,10.70
2018,04,10,10,59,10.70
2018,04,10,11,00,10.80
2018,04,10,11,01,10.80
2018,04,10,11,02,10.90
2018,04,10,11,03,11.00
2018,04,10,11,04,11.10
2018,04,10,11,05,11.20
2018,04,10,11,06,11.20
2018,04,10,11,07,11.30
2018,04,10,11,08,11.40
2018,04,10,11,09,11.50
2018,04,10,11,10,11.60
2018,04,10,11,11,11.60
2018,04,10,11,12,11.60
2018,04,10,11,13,11.60
2018,04,10,11,14,11.60
2018,04,10,11,15,11.70
2018,04,10,11,16,11.70
2018,04,10,11,17,11.70
2018,04,10,11,18,11.80
2018,04,10,11,19,11.80
2018,04,10,11,20,11.80
2018,04,10,11,21,11.80
2018,04,10,11,22,11.80
2018,04,10,11,23,11.80
2018,04,10,11,24,11.90
2018,04,10,11,25,12.00
2018,04,10,11,26,12.10
2018,04,10,11,27,12.10
2018,04,10,11,28,12.20
2018,04,10,11,29,12.10
2018,04,10,11,30,12.10
2018,04,10,11,31,12.10
2018,04,10,11,32,12.10
2018,04,10,11,33,12.10
2018,04,10,11,34,12.10
2018,04,10,11,35,12.10
2018,04,10,11,36,12.10
2018,04,10,11,37,12.10
2018,04,10,11,38,12.10
2018,04,10,11,39,12.20
2018,04,10,11,40,12.20
2018,04,10,11,41,12.20
2018,04,10,11,42,12.30
2018,04,10,11,43,12.40
2018,04,10,11,44,12.40
2018,04,10,11,45,12.50
2018,04,10,11,46,12.50
2018,04,10,11,47,12.60
2018,04,10,11,48,12.70
2018,04,10,11,49,12.70
2018,04,10,11,50,12.70
2018,04,10,11,51,12.70
2018,04,10,11,52,12.70
2018,04,10,11,53,12.70
2018,04,10,11,54,12.70
2018,04,10,11,55,12.70
2018,04,10,11,56,12.70
2018,04,10,11,57,12.70
2018,04,10,11,58,12.80
2018,04,10,11,59,12.80
2018,04,10,12,00,12.90
2018,04,10,12,01,12.90
2018,04,10,12,02,12.90
2018,04,10,12,03,13.00
2018,04,10,12,04,13.00
2018,04,10,12,05,13.00
2018,04,10,12,06,13.10
2018,04,10,12,07,13.10
2018,04,10,12,08,13.20
2018,04,10,12,09,13.20
2018,04,10,12,10,13.30
2018,04,10,12,11,13.30
2018,04,10,12,12,13.30
2018,04,10,12,13,13.30
2018,04,10,12,14,13.30
2018,04,10,12,15,13.30
2018,04,10,12,16,13.30
2018,04,10,12,17,13.40
2018,04,10,12,18,13.50
2018,04,10,12,19,13.60
2018,04,10,12,20,13.60
2018,04,10,12,21,13.60
2018,04,10,12,22,13.60
2018,04,10,12,23,13.70
2018,04,10,12,24,13.70
2018,04,10,12,25,13.80
2018,04,10,12,26,13.80
2018,04,10,12,27,13.80
2018,04,10,12,28,13.80
2018,04,10,12,29,13.90
2018,04,10,12,30,13.90
2018,04,10,12,31,13.90
2018,04,10,12,32,13.90
2018,04,10,12,33,13.90
2018,04,10,12,34,13.90
2018,04,10,12,35,13.90
2018,04,10,12,36,14.00
2018,04,10,12,37,14.00
2018,04,10,12,38,14.00
2018,04,10,12,39,14.00
2018,04,10,12,40,14.00
2018,04,10,12,41,14.10
2018,04,10,12,42,14.10
2018,04,10,12,43,14.10
2018,04,10,12,44,14.10
2018,04,10,12,45,14.20
2018,04,10,12,46,14.20
2018,04,10,12,47,14.20
2018,04,10,12,48,14.20
2018,04,10,12,49,14.20
2018,04,10,12,50,14.30
2018,04,10,12,51,14.30
2018,04,10,12,52,14.30
2018,04,10,12,53,14.30
2018,04,10,12,54,14.30
2018,04,10,12,55,14.30
2018,04,10,12,56,14.30
2018,04,10,12,57,14.20
2018,04,10,12,58,14.10
2018,04,10,12,59,14.00
2018,04,10,13,00,13.90
2018,04,10,13,01,14.00
2018,04,10,13,02,14.00
2018,04,10,13,03,14.10
2018,04,10,13,04,14.00
2018,04,10,13,05,14.00
2018,04,10,13,06,14.00
2018,04,10,13,07,14.00
2018,04,10,13,08,14.00
2018,04,10,13,09,14.10
2018,04,10,13,10,14.20
2018,04,10,13,11,14.20
2018,04,10,13,12,14.30
2018,04,10,13,13,14.30
2018,04,10,13,14,14.40
2018,04,10,13,15,14.50
2018,04,10,13,16,14.60
2018,04,10,13,17,14.60
2018,04,10,13,18,14.60
2018,04,10,13,19,14.60
2018,04,10,13,20,14.50
2018,04,10,13,21,14.40
2018,04,10,13,22,14.40
2018,04,10,13,23,14.30
2018,04,10,13,24,14.40
2018,04,10,13,25,14.50
2018,04,10,13,26,14.50
2018,04,10,13,27,14.50
2018,04,10,13,28,14.60
2018,04,10,13,29,14.60
2018,04,10,13,30,14.70
2018,04,10,13,31,14.80
2018,04,10,13,32,14.80
2018,04,10,13,33,14.80
2018,04,10,13,34,14.80
2018,04,10,13,35,14.80
2018,04,10,13,36,14.80
2018,04,10,13,37,14.80
2018,04,10,13,38,14.90
2018,04,10,13,39,14.90
2018,04,10,13,40,15.00
2018,04,10,13,41,15.10
2018,04,10,13,42,15.10
2018,04,10,13,43,15.00
2018,04,10,13,44,14.90
2018,04,10,13,45,14.80
2018,04,10,13,46,14.80
2018,04,10,13,47,14.90
2018,04,10,13,48,15.00
2018,04,10,13,49,15.10
2018,04,10,13,50,15.10
2018,04,10,13,51,15.20
2018,04,10,13,52,15.20
2018,04,10,13,53,15.20
2018,04,10,13,54,15.20
2018,04,10,13,55,15.20
2018,04,10,13,56,15.20
2018,04,10,13,57,15.20
2018,04,10,13,58,15.20
2018,04,10,13,59,15.10
2018,04,10,14,00,15.20
2018,04,10,14,01,15.20
2018,04,10,14,02,15.30
2018,04,10,14,03,15.20
2018,04,10,14,04,15.20
2018,04,10,14,05,15.20
2018,04,10,14,06,15.20
2018,04,10,14,07,15.10
2018,04,10,14,08,15.10
2018,04,10,14,09,15.10
2018,04,10,14,10,15.20
2018,04,10,14,11,15.30
2018,04,10,14,12,15.40
2018,04,10,14,13,15.50
2018,04,10,14,14,15.50
2018,04,10,14,15,15.40
2018,04,10,14,16,15.30
2018,04,10,14,17,15.30
2018,04,10,14,18,15.30
2018,04,10,14,19,15.40
2018,04,10,14,20,15.50
2018,04,10,14,21,15.60
2018,04,10,14,22,15.70
2018,04,10,14,23,15.80
2018,04,10,14,24,15.80
2018,04,10,14,25,15.90
2018,04,10,14,26,16.00
2018,04,10,14,27,16.00
2018,04,10,14,28,15.90
2018,04,10,14,29,15.80
2018,04,10,14,30,15.80
2018,04,10,14,31,15.70
2018,04,10,14,32,15.70
2018,04,10,14,33,15.70
2018,04,10,14,34,15.70
2018,04,10,14,35,15.70
2018,04,10,14,36,15.70
2018,04,10,14,37,15.80
2018,04,10,14,38,15.80
2018,04,10,14,39,15.80
2018,04,10,14,40,15.80
2018,04,10,14,41,15.80
2018,04,10,14,42,15.70
2018,04,10,14,43,15.60
2018,04,10,14,44,15.60
2018,04,10,14,45,15.60
2018,04,10,14,46,15.60
2018,04,10,14,47,15.60
2018,04,10,14,48,15.70
2018,04,10,14,49,15.70
2018,04,10,14,50,15.70
2018,04,10,14,51,15.70
2018,04,10,14,52,15.70
2018,04,10,14,53,15.70
2018,04,10,14,54,15.70
2018,04,10,14,55,15.70
2018,04,10,14,56,15.70
2018,04,10,14,57,15.80
2018,04,10,14,58,15.90
2018,04,10,14,59,15.90
2018,04,10,15,00,15.90
2018,04,10,15,01,15.90
2018,04,10,15,02,15.90
2018,04,10,15,03,15.80
2018,04,10,15,04,15.80
2018,04,10,15,05,15.80
2018,04,10,15,06,15.70
2018,04,10,15,07,15.70
2018,04,10,15,08,15.70
2018,04,10,15,09,15.70
2018,04,10,15,10,15.70
2018,04,10,15,11,15.70
2018,04,10,15,12,15.70
2018,04,10,15,13,15.80
2018,04,10,15,14,15.90
2018,04,10,15,15,15.90
2018,04,10,15,16,16.00
2018,04,10,15,17,16.00
2018,04,10,15,18,16.10
2018,04,10,15,19,16.10
2018,04,10,15,20,16.10
2018,04,10,15,21,16.20
2018,04,10,15,22,16.20
2018,04,10,15,23,16.20
2018,04,10,15,24,16.10
2018,04,10,15,25,16.00
2018,04,10,15,26,15.90
2018,04,10,15,27,15.90
2018,04,10,15,28,15.90
2018,04,10,15,29,15.90
2018,04,10,15,30,16.00
2018,04,10,15,31,16.00
2018,04,10,15,32,16.10
2018,04,10,15,33,16.10
2018,04,10,15,34,16.10
2018,04,10,15,35,16.20
2018,04,10,15,36,16.30
2018,04,10,15,37,16.30
2018,04,10,15,38,16.30
2018,04,10,15,39,16.30
2018,04,10,15,40,16.30
2018,04,10,15,41,16.20
2018,04,10,15,42,16.10
2018,04,10,15,43,15.90
2018,04,10,15,44,15.90
2018,04,10,15,45,15.90
2018,04,10,15,46,15.90
2018,04,10,15,47,15.90
2018,04,10,15,48,16.00
2018,04,10,15,49,16.00
2018,04,10,15,50,15.90
2018,04,10,15,51,15.90
2018,04,10,15,52,15.80
2018,04,10,15,53,15.80
2018,04,10,15,54,15.70
2018,04,10,15,55,15.70
2018,04,10,15,56,15.80
2018,04,10,15,57,15.90
2018,04,10,15,58,16.00
2018,04,10,15,59,16.00
2018,04,10,16,00,16.00
2018,04,10,16,01,16.00
2018,04,10,16,02,15.90
2018,04,10,16,03,15.90
2018,04,10,16,04,15.90
2018,04,10,16,05,15.80
2018,04,10,16,06,15.80
2018,04,10,16,07,15.80
2018,04,10,16,08,15.90
2018,04,10,16,09,15.90
2018,04,10,17,04,15.60
2018,04,10,17,05,15.60
2018,04,10,17,06,15.60
2018,04,10,17,07,15.50
2018,04,10,17,08,15.30
2018,04,10,17,09,15.30
2018,04,10,17,10,15.30
2018,04,10,17,11,15.30
2018,04,10,17,12,15.20
2018,04,10,17,13,15.10
2018,04,10,17,14,15.00
2018,04,10,17,15,15.00
2018,04,10,17,16,14.90
2018,04,10,17,17,14.80
2018,04,10,17,18,14.80
2018,04,10,17,19,14.70
2018,04,10,17,20,14.70
2018,04,10,17,21,14.60
2018,04,10,17,22,14.60
2018,04,10,17,23,14.60
2018,04,10,17,24,14.50
2018,04,10,17,25,14.50
2018,04,10,17,26,14.50
2018,04,10,17,27,14.40
2018,04,10,17,28,14.40
2018,04,10,17,29,14.40
2018,04,10,17,30,14.40
2018,04,10,17,31,14.40
2018,04,10,17,32,14.30
2018,04,10,17,33,14.30
2018,04,10,17,34,14.30
2018,04,10,17,35,14.30
2018,04,10,17,36,14.30
2018,04,10,17,37,14.30
2018,04,10,17,38,14.30
2018,04,10,17,39,14.30
2018,04,10,17,40,14.30
2018,04,10,17,41,14.30
2018,04,10,17,42,14.20
2018,04,10,17,43,14.20
2018,04,10,17,44,14.10
2018,04,10,17,45,14.10
2018,04,10,17,46,14.10
2018,04,10,17,47,14.00
2018,04,10,17,48,14.00
2018,04,10,17,49,13.90
2018,04,10,17,50,13.90
2018,04,10,17,51,13.90
2018,04,10,17,52,13.80
2018,04,10,17,53,13.80
2018,04,10,17,54,13.80
2018,04,10,17,55,13.80
2018,04,10,17,56,13.80
2018,04,10,17,57,13.80
2018,04,10,17,58,13.80
2018,04,10,17,59,13.70
2018,04,10,18,00,13.70
2018,04,10,18,01,13.70
2018,04,10,18,02,13.70
2018,04,10,18,03,13.70
2018,04,10,18,04,13.80
2018,04,10,18,05,13.80
2018,04,10,18,06,13.80
2018,04,10,18,07,13.90
2018,04,10,18,08,13.90
2018,04,10,18,09,14.00
2018,04,10,18,10,14.10
2018,04,10,18,11,14.10
2018,04,10,18,12,14.20
2018,04,10,18,13,14.20
2018,04,10,18,14,14.20
2018,04,10,18,15,14.30
2018,04,10,18,16,14.30
2018,04,10,18,17,14.30
2018,04,10,18,18,14.30
2018,04,10,18,19,14.40
2018,04,10,18,20,14.40
2018,04,10,18,21,14.40
2018,04,10,18,22,14.40
2018,04,10,18,23,14.40
2018,04,10,18,24,14.40
2018,04,10,18,25,14.40
2018,04,10,18,26,14.30
2018,04,10,18,27,14.30
2018,04,10,18,28,14.30
2018,04,10,18,29,14.30
2018,04,10,18,30,14.30
2018,04,10,18,31,14.30
2018,04,10,18,32,14.40
2018,04,10,18,33,14.40
2018,04,10,18,34,14.40
2018,04,10,18,35,14.30
2018,04,10,18,36,14.30
2018,04,10,18,37,14.30
2018,04,10,18,38,14.20
2018,04,10,18,39,14.20
2018,04,10,18,40,14.10
2018,04,10,18,41,14.10
2018,04,10,18,42,14.00
2018,04,10,18,43,14.00
2018,04,10,18,44,13.90
2018,04,10,18,45,13.90
2018,04,10,18,46,13.80
2018,04,10,18,47,13.80
2018,04,10,18,48,13.80
2018,04,10,18,49,13.70
2018,04,10,18,50,13.70
2018,04,10,18,51,13.60
2018,04,10,18,52,13.60
2018,04,10,18,53,13.50
2018,04,10,18,54,13.40
2018,04,10,18,55,13.40
2018,04,10,18,56,13.30
2018,04,10,18,57,13.30
2018,04,10,18,58,13.20
2018,04,10,18,59,13.20
2018,04,10,19,00,13.10
2018,04,10,19,01,13.10
2018,04,10,19,02,13.00
2018,04,10,19,03,13.00
2018,04,10,19,04,12.90
2018,04,10,19,05,12.90
2018,04,10,19,06,12.90
2018,04,10,19,07,12.80
2018,04,10,19,08,12.80
2018,04,10,19,09,12.80
2018,04,10,19,10,12.80
2018,04,10,19,11,12.70
2018,04,10,19,12,12.70
2018,04,10,19,13,12.70